When you browse on this site, cookies collect data to enhance your experience and personalize the content and advertising you see.
Visit our Privacy Policy to learn more. By continuing to use the site, you agree to this use of cookies and data.
  • In Belgium
  • List of Countries
  • For 7 days
  • Water Temperature
  • Satellite Maps
  • Weather Map
  • Weather Widgets
  • user-avatar
    Login

    Hourly Weather Elx

    Today, 18 December, Tuesday

    Time Temperature Precipitation Wind Pressure Humidity
    00:00 +9°C° 0 mm 1 mps 763 mmHg 77%
    01:00 +9°C° 0 mm 1 mps 763 mmHg 79%
    02:00 +9°C° 0 mm 1 mps 763 mmHg 81%
    03:00 +9°C° 0 mm 1 mps 762 mmHg 83%
    04:00 +9°C° 0 mm 1 mps 762 mmHg 84%
    05:00 +8°C° 0 mm 1 mps 762 mmHg 85%
    06:00 +8°C° 0 mm 1 mps 762 mmHg 86%
    07:00 +8°C° 0 mm 2 mps 762 mmHg 82%
    08:00 +10°C° 0 mm 2 mps 762 mmHg 78%
    09:00 +12°C° 0 mm 2 mps 761 mmHg 74%
    10:00 +13°C° 0 mm 2 mps 761 mmHg 69%
    11:00 +15°C° 0 mm 1 mps 761 mmHg 64%
    12:00 +15°C° 0 mm 2 mps 760 mmHg 61%
    13:00 +16°C° 0 mm 2 mps 760 mmHg 59%
    14:00 +16°C° 0 mm 2 mps 760 mmHg 57%
    15:00 +17°C° 0 mm 2 mps 759 mmHg 55%
    16:00 +15°C° 0 mm 2 mps 759 mmHg 63%
    17:00 +13°C° 0 mm 1 mps 759 mmHg 71%
    18:00 +11°C° 0 mm 1 mps 759 mmHg 80%
    19:00 +11°C° 0 mm 1 mps 760 mmHg 80%
    20:00 +10°C° 0 mm 2 mps 760 mmHg 80%
    21:00 +10°C° 0 mm 2 mps 760 mmHg 80%
    22:00 +10°C° 0 mm 2 mps 760 mmHg 79%
    23:00 +10°C° 0 mm 2 mps 760 mmHg 78%

    Tomorrow, 19 December, Wednesday

    Time Temperature Precipitation Wind Pressure Humidity
    00:00 +9°C° 0 mm 2 mps 759 mmHg 77%
    01:00 +10°C° 0 mm 2 mps 759 mmHg 74%
    02:00 +10°C° 0 mm 2 mps 759 mmHg 72%
    03:00 +12°C° 0 mm 2 mps 759 mmHg 69%
    04:00 +12°C° 0 mm 2 mps 759 mmHg 68%
    05:00 +12°C° 0 mm 2 mps 759 mmHg 67%
    06:00 +12°C° 0 mm 2 mps 759 mmHg 66%
    07:00 +13°C° 0 mm 2 mps 759 mmHg 63%
    08:00 +14°C° 0 mm 2 mps 759 mmHg 60%
    09:00 +16°C° 0 mm 1 mps 759 mmHg 57%
    10:00 +17°C° 0 mm 2 mps 759 mmHg 53%
    11:00 +18°C° 0 mm 3 mps 759 mmHg 49%
    12:00 +20°C° 0 mm 4 mps 759 mmHg 45%
    13:00 +20°C° 0 mm 4 mps 759 mmHg 43%
    14:00 +19°C° 0 mm 5 mps 759 mmHg 41%
    15:00 +19°C° 0 mm 5 mps 759 mmHg 40%
    16:00 +17°C° 0 mm 5 mps 759 mmHg 40%
    17:00 +15°C° 0 mm 4 mps 760 mmHg 41%
    18:00 +14°C° 0 mm 4 mps 760 mmHg 41%
    19:00 +13°C° 0 mm 4 mps 760 mmHg 44%
    20:00 +13°C° 0 mm 4 mps 761 mmHg 47%
    21:00 +12°C° 0 mm 4 mps 761 mmHg 50%
    22:00 +12°C° 0 mm 4 mps 761 mmHg 54%
    23:00 +11°C° 0 mm 3 mps 761 mmHg 59%

    Day after tomorrow, 20 December, Thursday

    Time Temperature Precipitation Wind Pressure Humidity
    00:00 +11°C° 0 mm 3 mps 761 mmHg 63%
    01:00 +11°C° 0 mm 3 mps 762 mmHg 65%
    02:00 +11°C° 0 mm 3 mps 762 mmHg 68%
    03:00 +10°C° 0 mm 3 mps 762 mmHg 70%
    04:00 +10°C° 0 mm 3 mps 762 mmHg 70%
    05:00 +11°C° 0 mm 3 mps 762 mmHg 71%
    06:00 +11°C° 0 mm 3 mps 762 mmHg 71%
    07:00 +12°C° 0 mm 2 mps 763 mmHg 70%
    08:00 +13°C° 0 mm 2 mps 763 mmHg 69%
    09:00 +13°C° 0 mm 2 mps 763 mmHg 67%
    10:00 +14°C° 0 mm 2 mps 763 mmHg 61%
    11:00 +16°C° 0 mm 2 mps 763 mmHg 55%
    12:00 +17°C° 0 mm 3 mps 763 mmHg 49%
    13:00 +17°C° 0 mm 3 mps 763 mmHg 47%
    14:00 +18°C° 0 mm 3 mps 763 mmHg 45%
    15:00 +18°C° 0 mm 3 mps 763 mmHg 43%
    16:00 +17°C° 0 mm 3 mps 763 mmHg 48%
    17:00 +14°C° 0 mm 3 mps 763 mmHg 53%
    18:00 +14°C° 0 mm 2 mps 764 mmHg 58%
    19:00 +13°C° 0 mm 2 mps 764 mmHg 61%
    20:00 +12°C° 0 mm 2 mps 765 mmHg 64%
    21:00 +12°C° 0 mm 1 mps 765 mmHg 67%
    22:00 +11°C° 0 mm 1 mps 765 mmHg 69%
    23:00 +11°C° 0 mm 1 mps 765 mmHg 72%

    21 December, Friday

    Time Temperature Precipitation Wind Pressure Humidity
    00:00 +11°C° 0 mm 1 mps 766 mmHg 74%
    01:00 +10°C° 0 mm 1 mps 766 mmHg 76%
    02:00 +10°C° 0 mm 1 mps 765 mmHg 78%
    03:00 +9°C° 0 mm 1 mps 765 mmHg 80%
    04:00 +9°C° 0 mm 1 mps 766 mmHg 80%
    05:00 +9°C° 0 mm 1 mps 766 mmHg 80%
    06:00 +9°C° 0 mm 1 mps 766 mmHg 80%
    07:00 +10°C° 0 mm 1 mps 766 mmHg 74%
    08:00 +12°C° 0 mm 1 mps 766 mmHg 67%
    09:00 +13°C° 0 mm 1 mps 767 mmHg 60%
    10:00 +15°C° 0 mm 1 mps 767 mmHg 55%
    11:00 +16°C° 0 mm 2 mps 766 mmHg 50%
    12:00 +17°C° 0 mm 2 mps 766 mmHg 45%
    13:00 +18°C° 0 mm 2 mps 766 mmHg 44%
    14:00 +18°C° 0 mm 2 mps 765 mmHg 43%
    15:00 +18°C° 0 mm 2 mps 765 mmHg 42%
    16:00 +16°C° 0 mm 2 mps 765 mmHg 49%
    17:00 +14°C° 0 mm 2 mps 765 mmHg 57%
    18:00 +13°C° 0 mm 2 mps 765 mmHg 65%
    19:00 +12°C° 0 mm 2 mps 766 mmHg 66%
    20:00 +12°C° 0 mm 2 mps 766 mmHg 68%
    21:00 +12°C° 0 mm 2 mps 766 mmHg 70%
    22:00 +10°C° 0 mm 2 mps 766 mmHg 70%
    23:00 +10°C° 0 mm 2 mps 765 mmHg 71%

    22 December, Saturday

    Time Temperature Precipitation Wind Pressure Humidity
    00:00 +10°C° 0 mm 2 mps 765 mmHg 72%
    01:00 +10°C° 0 mm 2 mps 765 mmHg 72%
    02:00 +9°C° 0 mm 2 mps 765 mmHg 73%
    03:00 +9°C° 0 mm 2 mps 764 mmHg 74%
    04:00 +9°C° 0 mm 2 mps 764 mmHg 73%
    05:00 +9°C° 0 mm 2 mps 764 mmHg 73%
    06:00 +9°C° 0 mm 2 mps 764 mmHg 72%
    07:00 +10°C° 0 mm 2 mps 765 mmHg 66%
    08:00 +13°C° 0 mm 2 mps 765 mmHg 60%
    09:00 +14°C° 0 mm 2 mps 765 mmHg 54%
    10:00 +16°C° 0 mm 2 mps 765 mmHg 48%
    11:00 +18°C° 0 mm 2 mps 764 mmHg 42%
    12:00 +19°C° 0 mm 2 mps 764 mmHg 36%
    13:00 +20°C° 0 mm 2 mps 764 mmHg 36%
    14:00 +20°C° 0 mm 2 mps 763 mmHg 35%
    15:00 +20°C° 0 mm 2 mps 763 mmHg 34%
    16:00 +18°C° 0 mm 2 mps 763 mmHg 42%
    17:00 +16°C° 0 mm 2 mps 763 mmHg 50%
    18:00 +13°C° 0 mm 2 mps 763 mmHg 58%
    19:00 +13°C° 0 mm 1 mps 763 mmHg 60%
    20:00 +12°C° 0 mm 1 mps 763 mmHg 62%
    21:00 +12°C° 0 mm 1 mps 763 mmHg 64%
    22:00 +11°C° 0 mm 1 mps 763 mmHg 67%
    23:00 +11°C° 0 mm 1 mps 763 mmHg 70%

    23 December, Sunday

    Time Temperature Precipitation Wind Pressure Humidity
    00:00 +11°C° 0 mm 1 mps 763 mmHg 72%
    01:00 +9°C° 0 mm 0 mps 763 mmHg 72%
    02:00 +9°C° 0 mm 0 mps 762 mmHg 72%
    03:00 +9°C° 0 mm 0 mps 762 mmHg 71%
    04:00 +8°C° 0 mm 0 mps 762 mmHg 71%
    05:00 +8°C° 0 mm 0 mps 762 mmHg 71%
    06:00 +8°C° 0 mm 0 mps 762 mmHg 70%
    07:00 +10°C° 0 mm 0 mps 762 mmHg 64%
    08:00 +11°C° 0 mm 0 mps 763 mmHg 58%
    09:00 +13°C° 0 mm 0 mps 763 mmHg 51%
    10:00 +16°C° 0 mm 1 mps 763 mmHg 45%
    11:00 +19°C° 0 mm 1 mps 762 mmHg 38%
    12:00 +20°C° 0 mm 1 mps 762 mmHg 32%
    13:00 +20°C° 0 mm 1 mps 762 mmHg 32%
    14:00 +21°C° 0 mm 1 mps 762 mmHg 32%
    15:00 +21°C° 0 mm 1 mps 761 mmHg 32%
    16:00 +18°C° 0 mm 1 mps 761 mmHg 41%
    17:00 +15°C° 0 mm 1 mps 761 mmHg 49%
    18:00 +13°C° 0 mm 1 mps 761 mmHg 58%
    19:00 +12°C° 0 mm 1 mps 762 mmHg 59%
    20:00 +12°C° 0 mm 1 mps 762 mmHg 60%
    21:00 +11°C° 0 mm 1 mps 762 mmHg 60%
    22:00 +11°C° 0 mm 1 mps 762 mmHg 62%
    23:00 +11°C° 0 mm 1 mps 761 mmHg 64%
    Show more